DW5026 Weather Reports


time (UTC)temp
F
wind
direction
speed
knots
gust
knots
rain 1hr
in
rain 24hr
in
rain mn
in
humidity
%
barometer
mb
20260505070058 58 297 0.9 12.2 0.00 0.03 0.00 60 994.1
20260505064556 58 240 1.7 7.8 0.00 0.03 0.00 61 994.2
20260505063058 58 277 0.9 8.7 0.00 0.03 0.00 64 994.3
20260505061618 58 245 2.6 8.7 0.00 0.03 0.00 63 994.1
20260505060053 58 305 1.7 8.7 0.00 0.03 0.00 60 994.3
20260505054601 59 158 4.3 11.3 0.00 0.03 0.03 57 994.2
20260505053047 60 271 2.6 7.0 0.00 0.03 0.03 54 994.2
20260505051546 60 253 2.6 7.8 0.00 0.03 0.03 54 994.0
20260505041543 63 309 0.9 8.7 0.00 0.03 0.03 47 993.1
20260505040044 63 293 1.7 7.8 0.00 0.03 0.03 46 993.1
20260505034545 63 259 1.7 6.1 0.00 0.03 0.03 44 992.8
20260505033049 64 281 0.0 2.6 0.00 0.03 0.03 41 992.5
20260505031541 64 288 0.0 1.7 0.00 0.03 0.03 40 992.4
20260505030043 65 281 0.9 3.5 0.00 0.03 0.03 39 992.2
20260505024602 65 280 0.9 2.6 0.00 0.03 0.03 38 992.0
20260505023041 66 285 0.0 1.7 0.00 0.03 0.03 36 991.9
20260505021549 67 312 0.0 1.7 0.00 0.03 0.03 37 991.9
20260505020045 67 283 0.0 4.3 0.00 0.03 0.03 36 991.7
20260505014538 66 314 0.0 1.7 0.00 0.03 0.03 39 991.8
20260505013035 66 316 0.0 0.9 0.00 0.03 0.03 42 991.8
20260505011547 67 316 0.0 0.0 0.00 0.03 0.03 41 991.8
20260505010033 67 316 0.0 0.9 0.00 0.03 0.03 38 991.8
20260505004541 67 315 0.0 0.0 0.00 0.03 0.03 38 991.9
20260505003032 67 322 0.0 3.5 0.00 0.03 0.03 36 992.0
20260505001531 67 327 0.0 5.2 0.00 0.03 0.03 36 992.1
20260505000028 68 167 0.0 5.2 0.00 0.03 0.03 37 992.1
20260504234526 67 328 0.9 5.2 0.00 0.03 0.03 40 992.3
20260504233027 66 328 1.7 8.7 0.00 0.03 0.03 42 992.6
20260504231525 67 326 0.9 4.3 0.00 0.03 0.03 44 992.6
20260504230027 66 325 0.0 3.5 0.03 0.03 0.03 49 992.8
20260504224523 64 322 0.0 3.5 0.03 0.03 0.03 53 992.9
20260504223027 61 299 1.7 5.2 0.03 0.03 0.03 59 993.0
20260504221525 61 294 0.0 8.7 0.03 0.03 0.03 57 993.5
20260504220024 68 311 2.6 7.0 0.00 0.00 0.00 39 993.4
20260504214520 70 285 0.0 6.1 0.00 0.00 0.00 29 992.6
20260504213022 72 294 1.7 6.1 0.00 0.00 0.00 26 992.4
20260504211520 73 298 0.0 4.3 0.00 0.00 0.00 27 992.3
20260504210120 74 294 0.0 0.9 0.00 0.00 0.00 26 992.3
20260504204519 76 303 0.9 3.5 0.00 0.00 0.00 25 992.4
20260504203018 78 302 0.0 3.5 0.00 0.00 0.00 23 992.5
20260504201515 77 274 0.0 2.6 0.00 0.00 0.00 22 992.6
20260504200017 76 297 0.0 2.6 0.00 0.00 0.00 24 992.8
20260504194511 76 314 0.0 5.2 0.00 0.00 0.00 23 992.9
20260504193010 79 292 1.7 4.3 0.00 0.00 0.00 22 993.0
20260504191513 78 285 0.9 4.3 0.00 0.00 0.00 22 993.1
20260504190007 78 290 0.0 2.6 0.00 0.00 0.00 23 993.4
20260504184504 78 290 0.9 5.2 0.00 0.00 0.00 22 993.5
20260504183002 77 290 0.9 3.5 0.00 0.00 0.00 23 993.7
20260504181607 77 298 0.0 6.1 0.00 0.00 0.00 23 993.9
20260504180056 77 302 0.9 3.5 0.00 0.00 0.00 25 994.1
20260504174553 77 290 0.0 3.5 0.00 0.00 0.00 26 994.2
20260504173053 75 280 2.6 4.3 0.00 0.00 0.00 24 994.3
20260504171548 75 307 0.0 0.9 0.00 0.00 0.00 27 994.5
20260504081546 49 307 0.0 0.9 0.00 0.00 0.00 62 996.1
20260504080139 48 298 0.0 0.9 0.00 0.00 0.00 64 996.1